Time_in_sec,Latitude,Longitude,Altitude,Nbsat_max_qualitysignal,Nbsat_locked,valid_data
1314890046.10819101,46.54710007,8.71081352,1975.30712891,6,6,1
1314890137.25615191,46.54710770,8.71079731,1979.84460449,4,7,1
1314890137.30762768,46.54710770,8.71079731,1979.95886230,4,7,1
1314890137.35618043,46.54710770,8.71079731,1979.96276855,4,7,1
1314890137.40732813,46.54710770,8.71079731,1979.95471191,4,7,1
1314890137.45632195,46.54710770,8.71079731,1979.94653320,4,7,1
1314890137.50734448,46.54710770,8.71079731,1979.93835449,4,7,1
1314890137.56025743,46.54710770,8.71079731,1980.05578613,4,7,1
1314890137.60842443,46.54710770,8.71079731,1980.05798340,4,7,1
1314890137.65626526,46.54710770,8.71079731,1980.05029297,4,7,1
1314890137.70718575,46.54710770,8.71079731,1980.04260254,4,7,1
1314890137.75941348,46.54710770,8.71079731,1980.03479004,4,7,1
1314890137.80723596,46.54710770,8.71079826,1980.15698242,4,7,1
1314890137.85936952,46.54710770,8.71079826,1980.15954590,4,7,1
1314890137.90832901,46.54710770,8.71079826,1980.15234375,4,7,1
1314890137.96042109,46.54710770,8.71079731,1980.14501953,4,7,1
1314890138.00733113,46.54710770,8.71079731,1980.13757324,4,7,1
1314890138.05927324,46.54710388,8.71079826,1980.26086426,4,7,1
1314890138.10723186,46.54710388,8.71079826,1980.26281738,4,7,1
1314890138.15932155,46.54710388,8.71079826,1980.25585938,4,7,1
1314890138.20718575,46.54710388,8.71079826,1980.24902344,4,7,1
1314890138.26029754,46.54710388,8.71079826,1980.24206543,4,7,1
1314890138.30813360,46.54710388,8.71079826,1980.37695312,4,7,1
1314890138.35927439,46.54710388,8.71079826,1980.37060547,4,7,1
1314890138.40723276,46.54710388,8.71079826,1980.36413574,4,7,1
1314890138.45625401,46.54710388,8.71079826,1980.35778809,4,7,1
1314890138.49621749,46.54710388,8.71079826,1980.35131836,4,7,1
1314890138.55926871,46.54710388,8.71079922,1980.48059082,5,7,1
1314890138.61129785,46.54710388,8.71079922,1980.47351074,5,7,1
1314890138.65919471,46.54710388,8.71079922,1980.46752930,5,7,1
1314890138.71130919,46.54710388,8.71079922,1980.46142578,5,7,1
1314890138.76040840,46.54710388,8.71079922,1980.45544434,5,7,1
1314890138.80795312,46.54710388,8.71079922,1980.56982422,5,7,1
1314890138.85930848,46.54710388,8.71079922,1980.57385254,5,7,1
1314890138.90726352,46.54710388,8.71079922,1980.56835938,5,7,1
1314890138.95635915,46.54710388,8.71079922,1980.56274414,5,7,1
1314890139.00798011,46.54710388,8.71079922,1980.55712891,5,7,1
1314890139.05624509,46.54710388,8.71080017,1980.66540527,5,7,1
1314890139.10720515,46.54710388,8.71080017,1980.66687012,5,7,1
1314890139.15633607,46.54710388,8.71080017,1980.66162109,5,7,1
1314890139.20822835,46.54710388,8.71080017,1980.65637207,5,7,1
1314890139.25930309,46.54710388,8.71079922,1980.65100098,5,7,1
1314890139.30781126,46.54710388,8.71080017,1980.75415039,5,7,1
1314890139.35626268,46.54710388,8.71080017,1980.75354004,5,7,1
1314890139.40731740,46.54710388,8.71080017,1980.74853516,5,7,1
1314890139.45930743,46.54710388,8.71080017,1980.74353027,5,7,1
1314890139.50724506,46.54710388,8.71080017,1980.73852539,5,7,1
1314890139.56031942,46.54710388,8.71080112,1980.84265137,5,7,1
1314890139.60833526,46.54710388,8.71080112,1980.83801270,5,7,1
1314890139.65636086,46.54710388,8.71080112,1980.83337402,5,7,1
1314890139.70720339,46.54710388,8.71080112,1980.82873535,5,7,1
1314890139.75933623,46.54710388,8.71080112,1980.82397461,5,7,1
1314890139.80766964,46.54710388,8.71080112,1980.91870117,5,7,1
1314890139.85632229,46.54710388,8.71080112,1980.92077637,5,7,1
1314890139.90833187,46.54710388,8.71080112,1980.91638184,5,7,1
1314890139.95632267,46.54710388,8.71080112,1980.91210938,5,7,1
1314890140.00833297,46.54710388,8.71080112,1980.90759277,5,7,1
1314890140.05933404,46.54710388,8.71080208,1981.00842285,5,7,1
1314890140.10602498,46.54710388,8.71080208,1981.00439453,5,7,1
1314890140.15565014,46.54710388,8.71080208,1981.00036621,5,7,1
1314890140.20832634,46.54710388,8.71080208,1980.99621582,5,7,1
1314890140.25922894,46.54710388,8.71080208,1980.99206543,5,7,1
1314890140.31119967,46.54710388,8.71080208,1981.08581543,5,7,1
1314890140.35633779,46.54710388,8.71080208,1981.08447266,5,7,1
1314890140.40835333,46.54710388,8.71080208,1981.08068848,5,7,1
1314890140.45541239,46.54710388,8.71080208,1981.07678223,5,7,1
1314890140.50034118,46.54710007,8.71080208,1981.07299805,5,7,1
1314890140.56034780,46.54710388,8.71080303,1981.17028809,5,7,1
1314890140.60842919,46.54710388,8.71080303,1981.16601562,5,7,1
1314890140.65934420,46.54710388,8.71080303,1981.16247559,5,7,1
1314890140.70734191,46.54710007,8.71080303,1981.15893555,5,7,1
1314890140.75930381,46.54710007,8.71080303,1981.15527344,5,7,1
1314890140.80824709,46.54710007,8.71080303,1981.24597168,5,7,1
1314890140.85631704,46.54710007,8.71080303,1981.24267578,5,7,1
1314890140.91131139,46.54710007,8.71080303,1981.23937988,5,7,1
1314890140.95931530,46.54710007,8.71080303,1981.23608398,5,7,1
1314890141.00828910,46.54710007,8.71080303,1981.23266602,5,7,1
1314890141.05631638,46.54710007,8.71080303,1981.31860352,5,7,1
1314890141.10734081,46.54710007,8.71080303,1981.31542969,5,7,1
1314890141.15923715,46.54710007,8.71080303,1981.31237793,5,7,1
1314890141.20725751,46.54710007,8.71080303,1981.30920410,5,7,1
1314890141.25923443,46.54710007,8.71080303,1981.30590820,5,7,1
1314890141.31120825,46.54710007,8.71080303,1981.38330078,5,7,1
1314890141.35919571,46.54710007,8.71080303,1981.38024902,5,7,1
1314890141.40723109,46.54710007,8.71080303,1981.37731934,5,7,1
1314890141.45925903,46.54710007,8.71080303,1981.37426758,5,7,1
1314890141.51070738,46.54710007,8.71080303,1981.37109375,5,7,1
1314890141.55925155,46.54710007,8.71080399,1981.44189453,5,7,1
1314890141.61129928,46.54710007,8.71080399,1981.43896484,5,7,1
1314890141.65924072,46.54710007,8.71080399,1981.43603516,5,7,1
1314890141.70823812,46.54710007,8.71080399,1981.43310547,5,7,1
1314890141.75621319,46.54710007,8.71080399,1981.43017578,5,7,1
1314890141.80737066,46.54710007,8.71080399,1981.49316406,5,7,1
1314890141.85623121,46.54710007,8.71080399,1981.49121094,5,7,1
1314890141.90730810,46.54710007,8.71080399,1981.48840332,5,7,1
1314890141.95588231,46.54710007,8.71080399,1981.48547363,5,7,1
1314890142.00730801,46.54710007,8.71080399,1981.48254395,5,7,1
1314890142.05634212,46.54710007,8.71080399,1981.53942871,5,7,1
1314890142.10725689,46.54710007,8.71080399,1981.53674316,5,7,1
1314890142.15623736,46.54710007,8.71080399,1981.53393555,5,7,1
1314890142.20719624,46.54710007,8.71080399,1981.53125000,5,7,1
1314890142.26067019,46.54710007,8.71080399,1981.52844238,5,7,1
1314890142.30721736,46.54710007,8.71080399,1981.57434082,5,7,1
1314890142.36025023,46.54710007,8.71080399,1981.57165527,5,7,1
1314890142.40740871,46.54710007,8.71080399,1981.56896973,5,7,1
1314890142.45936346,46.54710007,8.71080399,1981.56628418,5,7,1
1314890142.49572897,46.54710007,8.71080399,1981.56347656,5,7,1
1314890142.56021404,46.54710007,8.71080399,1981.60546875,5,7,1
1314890142.60839701,46.54710007,8.71080399,1981.60229492,5,7,1
1314890142.65635276,46.54710007,8.71080399,1981.59960938,5,7,1
1314890142.70734501,46.54710007,8.71080399,1981.59692383,5,7,1
1314890142.75621653,46.54710007,8.71080399,1981.59411621,5,7,1
1314890142.80759311,46.54710007,8.71080399,1981.63793945,5,7,1
1314890142.85561371,46.54710007,8.71080399,1981.63537598,5,7,1
1314890142.90730619,46.54710007,8.71080399,1981.63269043,5,7,1
1314890142.96033168,46.54710007,8.71080399,1981.62988281,5,7,1
1314890143.00765228,46.54710007,8.71080399,1981.62719727,5,7,1
1314890143.05573463,46.54710007,8.71080399,1981.67211914,5,7,1
1314890143.10833287,46.54710007,8.71080399,1981.66943359,5,7,1
1314890143.16033053,46.54710007,8.71080399,1981.66687012,5,7,1
1314890143.20730877,46.54710007,8.71080399,1981.66418457,5,7,1
1314890143.25931978,46.54710007,8.71080399,1981.66137695,5,7,1
1314890143.30733991,46.54710388,8.71080399,1981.70080566,5,7,1
1314890143.36033487,46.54710388,8.71080399,1981.69812012,5,7,1
1314890143.40734696,46.54710007,8.71080399,1981.69543457,5,7,1
1314890143.45635867,46.54710007,8.71080399,1981.69274902,5,7,1
1314890143.50731087,46.54710007,8.71080399,1981.69006348,5,7,1
1314890143.55633926,46.54710388,8.71080494,1981.73181152,5,7,1
1314890143.60843825,46.54710388,8.71080494,1981.72912598,5,7,1
1314890143.65528345,46.54710388,8.71080494,1981.72656250,5,7,1
1314890143.70832586,46.54710388,8.71080399,1981.72387695,5,7,1
1314890143.76034260,46.54710007,8.71080399,1981.72119141,5,7,1
1314890143.80735588,46.54710388,8.71080494,1981.75793457,5,7,1
1314890143.85635662,46.54710388,8.71080494,1981.75634766,5,7,1
1314890143.90832353,46.54710388,8.71080494,1981.75378418,5,7,1
1314890143.96026444,46.54710388,8.71080494,1981.75109863,5,7,1
1314890144.00978613,46.54710007,8.71080399,1981.74841309,5,7,1
1314890144.05617642,46.54710388,8.71080494,1981.78942871,5,7,1
1314890144.11104226,46.54710007,8.71080494,1981.78674316,5,7,1
1314890144.15925527,46.54710007,8.71080399,1981.78417969,5,7,1
1314890144.20940495,46.54710007,8.71080399,1981.78149414,5,7,1
1314890144.25618219,46.54710007,8.71080399,1981.77893066,5,7,1
1314890144.30724788,46.54710007,8.71080399,1981.82043457,5,7,1
1314890144.35777450,46.54710007,8.71080399,1981.81787109,5,7,1
1314890144.41124940,46.54710007,8.71080399,1981.81530762,5,7,1
1314890144.45930862,46.54710007,8.71080399,1981.81274414,5,7,1
1314890144.50821137,46.54710007,8.71080399,1981.81018066,6,7,1
1314890144.55622029,46.54710007,8.71080399,1981.84729004,6,7,1
1314890144.61137271,46.54710007,8.71080399,1981.84472656,6,7,1
1314890144.65623856,46.54710007,8.71080399,1981.84216309,6,7,1
1314890144.71130443,46.54710007,8.71080399,1981.83959961,6,7,1
1314890144.75613213,46.54710007,8.71080399,1981.83703613,6,7,1
1314890144.81242490,46.54710007,8.71080399,1981.87731934,6,7,1
1314890144.85925150,46.54710007,8.71080399,1981.87487793,6,7,1
1314890144.90732837,46.54710007,8.71080399,1981.87243652,6,7,1
1314890144.96033263,46.54710007,8.71080399,1981.86987305,6,7,1
1314890145.00905180,46.54710007,8.71080399,1981.86730957,6,7,1
1314890145.05900407,46.54710007,8.71080399,1981.90600586,6,7,1
1314890145.10820556,46.54710007,8.71080399,1981.90356445,6,7,1
1314890145.15928888,46.54710007,8.71080399,1981.90112305,6,7,1
1314890145.20822859,46.54710007,8.71080399,1981.89868164,6,7,1
1314890145.26034164,46.54710007,8.71080399,1981.89611816,6,7,1
1314890145.30729985,46.54710007,8.71080303,1981.93957520,6,7,1
1314890145.36023664,46.54710007,8.71080303,1981.93713379,6,7,1
1314890145.40731192,46.54710007,8.71080303,1981.93469238,6,7,1
1314890145.45622730,46.54710007,8.71080303,1981.93225098,6,7,1
1314890145.50733304,46.54710007,8.71080303,1981.92980957,6,7,1
1314890145.55923152,46.54710007,8.71080303,1981.97583008,6,7,1
1314890145.60839891,46.54710007,8.71080303,1981.97338867,6,7,1
1314890145.65575600,46.54710007,8.71080303,1981.97094727,6,7,1
1314890145.70731950,46.54710007,8.71080303,1981.96850586,6,7,1
1314890145.75930333,46.54709625,8.71080303,1981.96606445,6,7,1
1314890145.80818558,46.54710007,8.71080303,1982.01281738,6,7,1
1314890145.85932708,46.54709625,8.71080303,1982.01037598,6,7,1
1314890145.90832472,46.54709625,8.71080303,1982.00805664,6,7,1
1314890145.95934701,46.54709625,8.71080303,1982.00573730,6,7,1
1314890146.00825763,46.54709625,8.71080303,1982.00329590,6,7,1
1314890146.05625367,46.54709625,8.71080208,1982.05224609,6,7,1
1314890146.10722256,46.54709625,8.71080208,1982.05004883,6,7,1
1314890146.15558553,46.54709625,8.71080208,1982.04772949,6,7,1
1314890146.20757151,46.54709625,8.71080208,1982.04541016,6,7,1
1314890146.25939059,46.54709625,8.71080208,1982.04309082,6,7,1
1314890146.30731201,46.54709625,8.71080208,1982.08569336,6,7,1
1314890146.35640907,46.54709625,8.71080208,1982.08349609,6,7,1
1314890146.40756321,46.54709625,8.71080208,1982.08117676,6,7,1
1314890146.45545578,46.54709625,8.71080208,1982.07897949,6,7,1
1314890146.50824642,46.54709625,8.71080208,1982.07666016,6,6,1
1314890146.55634713,46.54709625,8.71080208,1982.11474609,6,6,1
1314890146.60834336,46.54709625,8.71080208,1982.11254883,6,6,1
1314890146.66035509,46.54709625,8.71080208,1982.11035156,6,6,1
1314890146.70826173,46.54709625,8.71080208,1982.10803223,6,6,1
1314890146.76021767,46.54709625,8.71080208,1982.10583496,6,6,1
1314890146.80722809,46.54709625,8.71080208,1982.13793945,6,6,1
1314890146.85935259,46.54709625,8.71080208,1982.13574219,6,6,1
1314890146.90826774,46.54709625,8.71080208,1982.13354492,6,6,1
1314890146.95621586,46.54709625,8.71080208,1982.13122559,6,6,1
1314890147.00834417,46.54709625,8.71080208,1982.12902832,6,6,1
1314890147.05678320,46.54709625,8.71080208,1982.16210938,6,6,1
1314890147.10732007,46.54709625,8.71080112,1982.16003418,6,6,1
1314890147.15619135,46.54709625,8.71080112,1982.15771484,6,6,1
1314890147.20729399,46.54709625,8.71080112,1982.15551758,6,6,1
1314890147.25927401,46.54709625,8.71080112,1982.15319824,6,6,1
1314890147.30790114,46.54709625,8.71080112,1982.18395996,6,6,1
1314890147.35919642,46.54709625,8.71080112,1982.18176270,6,6,1
1314890147.40823531,46.54709625,8.71080112,1982.17944336,6,6,1
1314890147.45931149,46.54709625,8.71080112,1982.17712402,6,6,1
1314890147.50807619,46.54709625,8.71080112,1982.17492676,6,6,1
1314890147.55930734,46.54709625,8.71080112,1982.20507812,6,6,1
1314890147.61117268,46.54709625,8.71080112,1982.20288086,6,6,1
1314890147.65924168,46.54709625,8.71080112,1982.20056152,6,6,1
1314890147.70791292,46.54709625,8.71080112,1982.19824219,6,6,1
1314890147.75601649,46.54709625,8.71080112,1982.19592285,6,6,1
1314890147.80793118,46.54709625,8.71080112,1982.22558594,6,6,1
1314890147.85625172,46.54709625,8.71080112,1982.22338867,6,6,1
1314890147.90800643,46.54709625,8.71080112,1982.22106934,6,6,1
1314890147.95601273,46.54709625,8.71080112,1982.21875000,6,6,1
1314890148.00800347,46.54709625,8.71080112,1982.21643066,6,6,1
1314890148.05932188,46.54709625,8.71080112,1982.24462891,6,6,1
1314890148.10720015,46.54709625,8.71080112,1982.24230957,6,6,1
1314890148.15589404,46.54709625,8.71080112,1982.23999023,6,6,1
1314890148.20722723,46.54709625,8.71080112,1982.23767090,6,6,1
1314890148.26023078,46.54709625,8.71080112,1982.23522949,6,6,1
1314890148.30730987,46.54709625,8.71080112,1982.25903320,6,6,1
1314890148.35932302,46.54709625,8.71080112,1982.25671387,6,6,1
1314890148.40774536,46.54709625,8.71080112,1982.25439453,6,6,1
1314890148.45625091,46.54709625,8.71080112,1982.25195312,6,6,1
1314890148.50723910,46.54709625,8.71080112,1982.24951172,6,6,1
1314890148.56034160,46.54709625,8.71080112,1982.27551270,6,6,1
1314890148.60840464,46.54709625,8.71080112,1982.27307129,6,6,1
1314890148.65560365,46.54709625,8.71080112,1982.27075195,6,6,1
1314890148.70741343,46.54709625,8.71080112,1982.26831055,6,6,1
1314890148.75566959,46.54709625,8.71080112,1982.26586914,6,6,1
1314890148.80831718,46.54709625,8.71080112,1982.28784180,6,6,1
1314890148.86031604,46.54709625,8.71080112,1982.28552246,6,6,1
1314890148.90731168,46.54709625,8.71080112,1982.28308105,6,6,1
1314890148.95562983,46.54709625,8.71080112,1982.28063965,6,6,1
1314890149.00723863,46.54709625,8.71080112,1982.27819824,6,6,1
1314890149.05564642,46.54709625,8.71080112,1982.28967285,6,6,1
1314890149.10721779,46.54709625,8.71080112,1982.28723145,6,6,1
1314890149.15623832,46.54709625,8.71080112,1982.28479004,6,6,1
1314890149.20751476,46.54709625,8.71080112,1982.28222656,6,6,1
1314890149.25632453,46.54709625,8.71080112,1982.27966309,6,6,1
1314890149.30728865,46.54709625,8.71080112,1982.28930664,6,6,1
1314890149.35957909,46.54709625,8.71080112,1982.28674316,6,6,1
1314890149.40725613,46.54709625,8.71080112,1982.28417969,6,6,1
1314890149.46025562,46.54709625,8.71080112,1982.28161621,6,6,1
1314890149.50828195,46.54709625,8.71080112,1982.27905273,6,6,1
1314890149.55544066,46.54709625,8.71080112,1982.28686523,6,6,1
1314890149.60833693,46.54709625,8.71080112,1982.28417969,6,6,1
1314890149.65989685,46.54709625,8.71080112,1982.28161621,6,6,1
1314890149.70734239,46.54709625,8.71080112,1982.27893066,6,6,1
1314890149.75920749,46.54709625,8.71080112,1982.27612305,6,6,1
1314890149.80730844,46.54709625,8.71080208,1982.27038574,6,6,1
1314890149.85631466,46.54709625,8.71080208,1982.26757812,6,6,1
1314890149.90731859,46.54709625,8.71080208,1982.26477051,6,6,1
1314890149.95638490,46.54709625,8.71080112,1982.26184082,6,6,1
1314890150.00731015,46.54709625,8.71080112,1982.25903320,6,6,1
1314890150.06033397,46.54710007,8.71080208,1982.25012207,6,6,1
1314890150.10730600,46.54710007,8.71080208,1982.24719238,6,6,1
1314890150.15935159,46.54709625,8.71080208,1982.24426270,6,6,1
1314890150.20724726,46.54709625,8.71080208,1982.24133301,6,6,1
1314890150.25624490,46.54709625,8.71080208,1982.23828125,6,6,1
1314890150.30725956,46.54710007,8.71080208,1982.22888184,6,6,1
1314890150.35624242,46.54710007,8.71080208,1982.22583008,6,6,1
1314890150.40721416,46.54710007,8.71080208,1982.22265625,6,6,1
1314890150.45929432,46.54710007,8.71080208,1982.21948242,6,6,1
1314890150.50726843,46.54710007,8.71080208,1982.21630859,6,6,1
1314890150.56084871,46.54710007,8.71080303,1982.19995117,6,6,1
1314890150.60862279,46.54710007,8.71080303,1982.19665527,6,6,1
1314890150.65591955,46.54710007,8.71080303,1982.19323730,6,6,1
1314890150.70725775,46.54710007,8.71080303,1982.18981934,6,6,1
1314890150.75603652,46.54710007,8.71080303,1982.18640137,6,6,1
1314890150.80825400,46.54710388,8.71080399,1982.16516113,6,6,1
1314890150.85590911,46.54710388,8.71080399,1982.16174316,6,6,1
1314890150.90721726,46.54710388,8.71080399,1982.15808105,6,6,1
1314890150.95603323,46.54710388,8.71080399,1982.15454102,6,6,1
1314890151.00794601,46.54710388,8.71080399,1982.15087891,6,6,1
1314890151.05991411,46.54710388,8.71080399,1982.12402344,6,6,1
1314890151.10733247,46.54710388,8.71080399,1982.12023926,6,6,1
1314890151.15924239,46.54710388,8.71080399,1982.11645508,6,6,1
1314890151.20832920,46.54710388,8.71080399,1982.11254883,6,6,1
1314890151.25577497,46.54710388,8.71080399,1982.10864258,6,6,1
1314890151.30733633,46.54710388,8.71080494,1982.08142090,6,6,1
1314890151.35624599,46.54710388,8.71080494,1982.07739258,6,6,1
1314890151.40841126,46.54710388,8.71080494,1982.07336426,6,6,1
1314890151.46033812,46.54710388,8.71080494,1982.06921387,6,6,1
1314890151.50839615,46.54710388,8.71080494,1982.06518555,6,6,1
1314890151.55922580,46.54710770,8.71080589,1982.03039551,6,6,1
1314890151.60840559,46.54710770,8.71080589,1982.02612305,6,6,1
1314890151.65922761,46.54710770,8.71080589,1982.02185059,6,6,1
1314890151.70735335,46.54710770,8.71080589,1982.01745605,6,6,1
1314890151.76184320,46.54710770,8.71080589,1982.01306152,6,6,1
1314890151.80828047,46.54710770,8.71080685,1981.97351074,6,6,1
1314890151.85633445,46.54710770,8.71080685,1981.96887207,6,6,1
1314890151.91020203,46.54710770,8.71080685,1981.96423340,6,6,1
1314890151.95636773,46.54710770,8.71080685,1981.95959473,6,6,1
1314890152.00754952,46.54710770,8.71080685,1981.95483398,6,6,1
1314890152.05622101,46.54711151,8.71080685,1981.90466309,6,6,1
1314890152.10725856,46.54711151,8.71080685,1981.89978027,6,6,1
1314890152.15625548,46.54711151,8.71080685,1981.89477539,6,6,1
1314890152.20829916,46.54711151,8.71080685,1981.88977051,6,6,1
1314890152.25633574,46.54711151,8.71080685,1981.88476562,6,6,1
1314890152.30734229,46.54711151,8.71080780,1981.83117676,6,6,1
1314890152.35625505,46.54711151,8.71080780,1981.82592773,6,6,1
1314890152.40826511,46.54711151,8.71080780,1981.82067871,6,6,1
1314890152.45535231,46.54711151,8.71080780,1981.81530762,6,6,1
1314890152.50729775,46.54711151,8.71080780,1981.81005859,6,6,1
1314890152.55550265,46.54711533,8.71080875,1981.74768066,6,6,1
1314890152.60733581,46.54711533,8.71080875,1981.74194336,6,6,1
1314890152.66034102,46.54711533,8.71080875,1981.73620605,6,6,1
1314890152.70727086,46.54711533,8.71080875,1981.73046875,6,6,1
1314890152.75931716,46.54711533,8.71080875,1981.72460938,6,6,1
1314890152.80733061,46.54711533,8.71080875,1981.66259766,6,6,1
1314890152.85931373,46.54711533,8.71080875,1981.65649414,6,6,1
1314890152.90824914,46.54711533,8.71080875,1981.65039062,6,6,1
1314890152.96110702,46.54711533,8.71080875,1981.64428711,6,6,1
1314890153.00820804,46.54711533,8.71080875,1981.63806152,6,6,1
1314890153.05929661,46.54711533,8.71080971,1981.56713867,6,6,1
1314890153.10833597,46.54711533,8.71080971,1981.56066895,6,6,1
1314890153.15629196,46.54711533,8.71080971,1981.55407715,6,6,1
1314890153.20722222,46.54711533,8.71080971,1981.54760742,6,6,1
1314890153.25923133,46.54711533,8.71080971,1981.54101562,6,6,1
1314890153.30718589,46.54711914,8.71080971,1981.46154785,6,6,1
1314890153.35625124,46.54711914,8.71080971,1981.45458984,6,6,1
1314890153.41124964,46.54711914,8.71080971,1981.44775391,6,6,1
1314890153.45612812,46.54711914,8.71080971,1981.44079590,6,6,1
1314890153.50738096,46.54711914,8.71080971,1981.43383789,6,6,1
1314890153.56008649,46.54711914,8.71081066,1981.35290527,6,6,1
1314890153.60828328,46.54711914,8.71081066,1981.34558105,6,6,1
1314890153.65593410,46.54711914,8.71081066,1981.33825684,6,6,1
1314890153.70719695,46.54711914,8.71081066,1981.33093262,6,6,1
1314890153.75606060,46.54711914,8.71081066,1981.32348633,6,6,1
1314890153.81136703,46.54712296,8.71081066,1981.24023438,6,6,1
1314890153.85930014,46.54712296,8.71081066,1981.23254395,6,6,1
1314890153.91130424,46.54712296,8.71081066,1981.22473145,6,6,1
1314890153.95619893,46.54712296,8.71081066,1981.21704102,6,6,1
1314890154.00722098,46.54712296,8.71081066,1981.20922852,6,6,1
1314890154.05633307,46.54712296,8.71081066,1981.13122559,6,6,1
1314890154.10760856,46.54712296,8.71081066,1981.12316895,6,6,1
1314890154.15994120,46.54712296,8.71081066,1981.11499023,6,6,1
1314890154.20735765,46.54712296,8.71081066,1981.10681152,6,6,1
1314890154.25929642,46.54712296,8.71081066,1981.09851074,6,6,1
1314890154.30808306,46.54712296,8.71081066,1981.02600098,6,6,1
1314890154.36169672,46.54712296,8.71081066,1981.01757812,6,6,1
1314890154.40870214,46.54712296,8.71081066,1981.00903320,6,6,1
1314890154.45682979,46.54712296,8.71081066,1981.00048828,6,6,1
1314890154.50722051,46.54712296,8.71081066,1980.99182129,6,6,1
1314890154.55930662,46.54712677,8.71081161,1980.92248535,6,6,1
1314890154.60830712,46.54712677,8.71081161,1980.91369629,6,6,1
1314890154.65578008,46.54712677,8.71081161,1980.90478516,6,6,1
1314890154.70640874,46.54712677,8.71081161,1980.89575195,6,6,1
1314890154.76022315,46.54712677,8.71081161,1980.88671875,6,6,1
1314890154.80725789,46.54712677,8.71081161,1980.81164551,6,6,1
1314890154.85564423,46.54712677,8.71081161,1980.80236816,6,6,1
1314890154.90833378,46.54712677,8.71081161,1980.79296875,6,6,1
1314890154.95631552,46.54712677,8.71081161,1980.78356934,6,6,1
1314890155.00819206,46.54712677,8.71081161,1980.77416992,6,6,1
1314890155.05565429,46.54713058,8.71081161,1980.70227051,6,6,1
